Location: Wyoming Skies Observatory
(43.6910°N, 108.3105°W)
Time: 11:52:17
(UTC-06:00)

Daily predictions for brighter satellites

Satellite Brightness Start Highest point End
(mag) Time Altitude Azimuth Time Altitude Azimuth Time Altitude Azimuth
Cosmos 1844 3.8 21:03:45 10° SSW 21:09:27 68° ESE 21:15:14 10° NNE
USA 186 2.8 21:07:27 10° S 21:10:33 49° W 21:13:49 10° NNW
Okean 2 Rocket 4.3 21:07:03 10° SE 21:10:34 24° E 21:14:05 10° NE
SL-08 ROCKET BODY 4.5 21:05:16 10° S 21:11:16 90° W 21:17:13 10° N
Cosmos 2074 Rocket 4.3 21:05:44 10° S 21:12:01 79° W 21:18:19 10° N
SJ-11-01 4.3 21:09:44 10° SSE 21:14:27 72° ENE 21:19:12 10° N
Cosmos 1782 Rocket 4.3 21:14:05 10° SSE 21:18:06 34° E 21:22:10 10° NNE
Envisat 3.3 21:13:33 10° SSE 21:18:28 52° ENE 21:23:24 10° N
Resurs 01 Rocket 4.4 21:16:49 10° SW 21:19:30 16° W 21:22:12 10° NW
NOSS 5 (C) 4.1 21:17:47 10° SSW 21:21:10 77° SE 21:24:16 10° NE
Cosmos 2082 Rocket 3.2 21:16:35 10° N 21:21:42 32° NE 21:26:44 10° ESE
Sich 1 Rocket 3.7 21:19:18 10° S 21:23:53 86° E 21:28:30 10° N
Cosmos 2084 3.1 21:20:08 10° SSW 21:23:59 82° SE 21:27:50 10° NE
COSMOS 2487 2.5 21:21:20 10° NNW 21:24:57 67° ENE 21:28:32 10° SSE
Coronas F rocket 4.3 21:23:00 10° SW 21:25:05 20° WNW 21:27:11 10° NNW
Nadezhda 3 Rocket 4.1 21:21:49 10° N 21:28:13 74° E 21:34:34 10° SSE
ERS-1 Rocket 3.1 21:25:04 10° SSE 21:30:06 84° WSW 21:35:11 10° NNW
Cosmos 1420 Rocket 4.3 21:25:19 10° S 21:30:15 44° ESE 21:35:12 10° NNE
APEX 4.2 21:27:29 10° S 21:31:08 35° ESE 21:35:47 10° NE
Cosmos 1975 Rocket 3.4 21:27:11 10° N 21:31:24 48° ENE 21:35:36 10° SSE
Cosmos 407 Rocket 4.4 21:29:54 10° NNW 21:34:59 49° WSW 21:40:06 10° S
Cosmos 1140 Rocket 3.5 21:30:04 10° NNW 21:35:11 66° ENE 21:40:09 11° SSE
DNEPR-1 R/B 3.9 21:30:19 10° NNW 21:35:50 72° NE 21:39:53 13° SE
BREEZE-M TANK 4.4 21:12:22 10° WSW 21:36:34 83° N 21:41:10 10° E
ISS -3.2 21:35:26 10° WSW 21:38:41 77° NNW 21:41:57 10° NE
Cosmos 1378 Rocket 3.5 21:36:20 10° N 21:40:40 86° W 21:44:59 10° S
Cosmos 2297 4.1 21:35:38 10° S 21:40:56 41° ESE 21:46:15 10° NE
Cosmos 1606 3.3 21:38:08 10° NNW 21:42:02 61° W 21:45:54 10° S
Cosmos 1908 Rocket 3.8 21:38:09 10° SSW 21:42:33 77° W 21:47:02 10° N
Terra 3.9 21:40:37 10° E 21:43:01 14° ENE 21:45:25 10° NNE
Intercosmos 25 3.6 21:42:36 12° SSE 21:45:26 33° E 21:48:21 10° NNE
CZ-4B R/B 4.4 21:41:52 10° NE 21:46:04 27° E 21:49:14 14° SSE
Cosmos 1862 3.5 21:44:01 10° SSW 21:48:05 75° W 21:52:11 10° N
Cosmos 1452 Rocket 4.0 21:45:23 10° SSW 21:50:37 66° WNW 21:55:54 10° NNE
MetOp-B 4.3 21:45:55 12° SSE 21:50:46 62° ENE 21:56:03 10° N
Cosmos 1184 Rocket 2.8 21:48:13 10° S 21:51:33 89° W 21:54:55 10° N
Cosmos 1238 Rocket 2.8 21:48:40 10° NNW 21:52:01 73° W 21:55:59 10° S
EO 1 Delta rocket 4.2 21:46:21 10° N 21:52:26 87° E 21:57:22 10° S
H-2A R/B 3.5 21:51:51 14° ESE 21:55:09 24° ENE 21:59:15 10° NNE
deb Chang Zheng 4 3.7 21:52:19 10° NNE 21:56:46 83° WNW 22:01:12 10° SSW
Nimbus 7 Rocket 4.4 21:51:03 10° NNE 21:57:01 79° ESE 22:03:02 10° SSW
Abrixas 3.6 21:54:35 10° SSW 21:57:04 24° SE 21:57:04 24° SE
SPOT 5 3.1 21:53:17 11° SSE 21:58:24 86° ENE 22:03:48 10° NNW
Cosmos 2341 Rocket 4.1 21:52:54 10° S 21:59:12 87° W 22:05:30 10° N
Cosmos 1242 Rocket 2.5 21:59:09 10° N 22:02:50 88° W 22:05:37 17° S
USA 245 3.6 22:03:11 23° SE 22:05:11 51° ENE 22:09:27 10° N
SL-8 Rocket 4.0 21:59:28 10° S 22:05:40 64° E 22:11:49 10° NNE
Lacrosse 5 3.3 22:10:52 18° ESE 22:10:52 18° ESE 22:13:23 10° ENE
YAOGAN 6 2.4 22:07:53 22° SSE 22:10:01 81° ENE 22:13:34 10° N
SPOT 1/Viking Rocket 3.6 22:06:51 19° SSE 22:10:33 64° ENE 22:15:44 10° N
Gbstr 26 Del rocket 4.1 22:05:31 10° NW 22:10:45 47° NNE 22:14:15 15° E
H-2A R/B 2.9 22:07:06 10° S 22:11:14 47° W 22:15:18 10° NNW
Cosmos 1408 3.9 22:09:27 10° SSW 22:12:54 39° WNW 22:16:21 10° N
ARGOS 3.3 22:09:19 20° SE 22:12:56 60° ENE 22:18:13 10° N
Timation 2 Rocket 4.1 22:08:31 10° NNW 22:14:28 68° WSW 22:19:07 17° SSE
Cosmos 2151 Rocket 3.8 22:14:02 20° SSE 22:16:56 53° E 22:21:21 10° NNE
Cosmos 1850 Rocket 4.3 22:15:58 10° NNW 22:21:16 67° WSW 22:25:08 19° S
BREEZE-M DEB (TANK) 3.5 22:14:26 10° WNW 22:26:14 62° SW 22:28:16 29° SSE
BREEZE-M DEB (TANK) 4.3 22:23:32 10° W 22:26:35 47° N 22:35:02 10° ENE
Cosmos 1825 4.4 22:27:34 10° SW 22:30:48 26° WNW 22:34:03 10° NNW
USA 229 DEB 3.8 22:26:10 10° NW 22:33:18 85° WSW 22:37:41 26° SSE
USA 229 3.8 22:26:16 10° NW 22:33:25 86° SW 22:37:47 26° SSE
Okean 1 Rocket 4.0 22:33:27 28° ESE 22:34:06 29° E 22:37:58 10° NNE
Cosmos 864 Rocket 4.4 22:30:23 17° S 22:35:11 74° E 22:41:21 10° NNE
Meteor 1-20 Rocket 4.4 22:32:19 26° SSE 22:35:14 52° E 22:40:34 10° NNE
Timation 1 Rocket 4.4 22:31:53 12° S 22:37:22 59° ESE 22:43:16 10° NNE
NOSS 8 (E) 4.3 22:35:05 14° SSW 22:38:00 74° SE 22:41:44 10° NE
Cosmos 1833 Rocket 2.7 22:34:25 10° NNW 22:40:04 84° WSW 22:42:58 30° SSE
Cosmos 2366 rocket 4.0 22:41:56 15° S 22:47:19 85° W 22:53:43 10° N
Cosmos 2278 Rocket 3.9 22:42:22 10° WSW 22:47:29 34° NW 22:52:39 10° N
Cosmos 1331 Rocket 4.0 22:45:45 30° S 22:48:07 59° ESE 22:53:11 10° NNE
CZ-4 R/B 3.6 22:43:27 10° NNE 22:48:10 82° ESE 22:50:35 28° S
Okean 1 3.4 22:45:32 10° N 22:49:35 59° E 22:50:21 49° SE
Okean 1-7 Rocket 4.1 22:45:26 10° N 22:49:44 43° ENE 22:50:37 38° ESE
Meteor 1-25 Rocket 4.2 22:49:12 22° S 22:53:09 86° E 22:59:01 10° N
Cosmos 1110 Rocket 3.9 22:53:35 24° SSW 22:56:48 80° ESE 23:02:02 10° NNE
DMSP B5D2-2 4.2 22:54:55 10° NNE 23:00:04 55° E 23:01:31 41° SSE
SL-08 RB Rocket 4.2 22:59:46 31° SSW 23:01:44 56° W 23:06:19 10° NNW
Cosmos 1812 2.7 22:57:55 10° N 23:01:48 81° W 23:02:27 60° S
Landsat 7 3.8 23:02:46 41° S 23:04:25 77° WSW 23:09:12 10° NNW
OAO 3 Rocket 4.5 23:00:47 10° WSW 23:03:42 26° SSW 23:03:42 26° SSW
Cosmos 2082 Rocket 3.1 23:00:33 10° NW 23:05:52 42° WSW 23:08:39 25° SSW
AVUM R/B 4.3 23:04:19 10° NW 23:07:37 37° WSW 23:07:48 37° WSW
CARTOSAT-1 3.5 23:09:54 58° S 23:10:44 88° W 23:15:04 10° NNW
Genesis I 4.1 23:12:04 38° ENE 23:12:04 38° ENE 23:14:52 10° NE
ATLAS 2AS CENTAUR R/B 4.3 23:04:47 10° NNW 23:12:04 34° NE 23:18:13 13° E
ISS -0.9 23:12:49 10° WNW 23:15:30 23° NNW 23:18:12 10° NE
Meteor 2-4 Rocket 4.3 23:12:58 10° N 23:18:08 41° ENE 23:19:17 36° ESE
Terra 1.8 23:19:00 52° S 23:20:08 76° WSW 23:24:55 10° NNW
Cosmos 1000 Rocket 4.5 23:13:59 10° N 23:20:16 73° E 23:22:21 44° SSE
NOSS 3-1 (C) 4.0 23:13:07 10° NW 23:20:40 80° NE 23:24:23 37° SE
Cosmos 1486 Rocket 4.0 23:18:22 10° NNW 23:23:44 83° WSW 23:25:00 53° S
Cosmos 1354 Rocket 4.3 23:19:11 10° NNW 23:24:22 55° ENE 23:25:26 46° ESE
Cosmos 1356 4.5 23:25:49 39° NE 23:25:49 39° NE 23:28:17 10° NNE
Cosmos 2084 Rocket 4.3 23:24:16 10° NNW 23:27:54 35° NE 23:28:12 35° ENE
USA 234 3.3 23:22:38 10° ENE 23:29:00 53° SE 23:31:10 38° S
Cosmos 1315 Rocket 4.3 23:30:57 26° ENE 23:30:57 26° ENE 23:33:15 10° NNE
Meteor 1-13 Rocket 4.3 23:24:07 10° N 23:30:06 86° W 23:31:53 48° S
Spot 2 3.9 23:27:48 10° NNE 23:31:54 70° ENE 23:31:54 70° ENE
Lacrosse 5 rocket 1.5 23:33:05 59° NNE 23:33:05 59° NNE 23:36:15 10° NE
H-2A R/B 2.7 23:32:29 37° SSW 23:34:14 51° W 23:39:24 10° NNW
Cosmos 1892 Rocket 4.2 23:32:22 10° N 23:36:22 43° ENE 23:36:22 43° ENE
Spot 4 4.0 23:37:44 57° SSW 23:38:32 67° WSW 23:43:23 10° NNW
IGS 5A 4.0 23:38:16 48° WSW 23:38:33 49° W 23:42:37 10° NNW
Cosmos 1633 3.6 23:44:00 40° NNE 23:44:00 40° NNE 23:46:35 10° NNE
Okean 2 4.3 23:40:24 10° N 23:43:53 40° ENE 23:43:53 40° ENE
Meteor 1-11 Rocket 3.7 23:44:05 50° SSW 23:45:42 86° WNW 23:51:29 10° N
Cosmos 1302 Rocket 4.2 23:49:53 42° SW 23:51:36 66° WNW 23:56:53 10° NNE
Lacrosse 5 1.9 23:49:52 32° SW 23:52:15 79° NW 23:57:23 10° NE
Cosmos 1025 Rocket 3.0 23:48:05 10° N 23:52:22 79° WNW 23:52:22 79° WNW
Cosmos 2369 Rocket 2.1 23:53:08 65° SE 23:53:33 68° ESE 23:59:08 10° NNE
